Regional Weather Roundup
Issued by NWS

Home | Current Version | Previous Version | Text Only | Print | Product List | Glossary Off
Versions: 1 2 3 4 5 6 7 8 9 10 11 12 13 14 15 16 17 18 19 20 21 22 23 24 25 26 27

000
ASUS45 KCYS 250210
RWRWY

WYOMING REGIONAL WEATHER ROUNDUP
NATIONAL WEATHER SERVICE CHEYENNE WY
800 PM MDT THU MAY 24 2018

NOTE:  "FAIR" INDICATES FEW OR NO CLOUDS BELOW 12,000 FEET
WITH NO SIGNIFICANT WEATHER AND/OR OBSTRUCTIONS TO VISIBILITY.

WYZ001-250300-
YELLOWSTONE NATIONAL PARK

CITY           SKY/WX    TMP DP  RH WIND       PRES   REMARKS
LK YELLOWSTONE NOT AVBL
W YELLOWSTONE  NOT AVBL

$$
WYZ002>013-054>058-071-098>099-250300-
NORTHERN WYOMING

CITY           SKY/WX    TMP DP  RH WIND       PRES   REMARKS
JACKSON        LGT RAIN  56  49  77 N7        30.19R
CODY           FAIR      69  42  37 W9G17     30.06R
GREYBULL       MOCLDY    76  47  35 W7        29.96R
WORLAND        FAIR      70  54  56 E3        29.97S
SHERIDAN       MOCLDY    74  52  46 CALM      29.94S
BUFFALO        FAIR      70  52  52 N3        30.02R
GILLETTE       FAIR      69  53  56 NW7       29.96R
NEWCASTLE      FAIR      70  52  52 E13       29.97R

$$
WYZ014>020-022>026-101>103-250300-
CENTRAL WYOMING

CITY           SKY/WX    TMP DP  RH WIND       PRES   REMARKS
BIG PINEY      FAIR      58  43  57 N17       30.21R
PINEDALE       FAIR      57  43  58 NW9       30.23R
DUBOIS         FAIR      54  37  54 N9        30.20R
LANDER         FAIR      69  47  45 N6        30.06R
RIVERTON       FAIR      68  45  43 NW15      30.08R
CASPER         FAIR      68  51  54 NW7       30.05R
DOUGLAS        FAIR      69  50  50 NW5       30.04R

$$
WYZ021-027>030-104>119-250300-
SOUTHERN WYOMING

CITY           SKY/WX    TMP DP  RH WIND       PRES   REMARKS
EVANSTON       FAIR      67  38  34 NW8       30.19S
FORT BRIDGER   FAIR      71  32  23 NW8       30.22S
ROCK SPRINGS   FAIR      67  38  34 W8        30.18S
DIXON          FAIR      70  33  25 W7        30.19R
RAWLINS        FAIR      70  33  25 W10       30.17R
SARATOGA       FAIR      63  32  31 SW6       30.21R
LARAMIE        FAIR      65  34  31 W12       30.20R
CHEYENNE       MOCLDY    68  46  45 S7        30.13R
TORRINGTON     FAIR      74  55  51 NE7       29.98R
PINE BLUFFS    MOCLDY    66  48  52 S5        30.08R

$$




USA.gov is the U.S. government's official web portal to all federal, state and local government web resources and services.